Time,TemperatureF,DewpointF,PressureIn,WindDirection,WindDirectionDegrees,WindSpeedMPH,WindSpeedGustMPH,Humidity,HourlyPrecipIn,Conditions,Clouds,dailyrainin,SoftwareType,DateUTC
2013-07-12 00:00:00,79.6,76.4,29.94,ENE,67,8.0,13.0,90,0.00,RA,,0.00,WeatherDisplay:10.37,2013-07-12 06:00:00,
2013-07-12 00:15:00,80.3,74.6,29.94,East,82,8.0,13.0,83,0.00,CLR,,0.00,WeatherDisplay:10.37,2013-07-12 06:15:00,
2013-07-12 00:30:00,80.7,75.8,29.93,ENE,73,5.0,15.0,85,0.00,CLR,,0.00,WeatherDisplay:10.37,2013-07-12 06:30:00,
2013-07-12 00:45:00,80.8,76.5,29.93,ENE,76,5.0,12.0,87,0.00,CLR,,0.00,WeatherDisplay:10.37,2013-07-12 06:45:00,
2013-07-12 01:00:00,81.2,77.3,29.93,East,82,8.0,14.0,88,0.00,CLR,,0.00,WeatherDisplay:10.37,2013-07-12 07:00:00,
2013-07-12 01:15:00,81.5,76.9,29.93,East,80,8.0,14.0,86,0.00,CLR,,0.00,WeatherDisplay:10.37,2013-07-12 07:15:00,
2013-07-12 01:30:00,81.9,76.3,29.93,East,89,7.0,14.0,83,0.00,CLR,,0.00,WeatherDisplay:10.37,2013-07-12 07:30:00,
2013-07-12 01:45:00,82.1,76.4,29.92,ESE,103,6.0,16.0,83,0.00,CLR,,0.00,WeatherDisplay:10.37,2013-07-12 07:45:00,
2013-07-12 02:00:00,82.2,76.5,29.92,East,96,6.0,13.0,83,0.00,CLR,,0.00,WeatherDisplay:10.37,2013-07-12 08:00:00,
2013-07-12 02:15:00,82.3,77.7,29.92,East,95,3.0,14.0,86,0.00,CLR,,0.00,WeatherDisplay:10.37,2013-07-12 08:15:00,
2013-07-12 02:30:00,82.1,77.8,29.92,East,94,5.0,14.0,87,0.00,CLR,,0.00,WeatherDisplay:10.37,2013-07-12 08:30:00,
2013-07-12 02:45:00,82.0,77.7,29.92,ESE,106,7.0,12.0,87,0.00,CLR,,0.00,WeatherDisplay:10.37,2013-07-12 08:45:00,
2013-07-12 03:00:00,82.0,77.8,29.91,East,87,6.0,10.0,87,0.00,CLR,,0.00,WeatherDisplay:10.37,2013-07-12 09:00:00,
2013-07-12 03:15:00,82.1,77.5,29.92,East,95,7.0,14.0,86,0.00,CLR,,0.00,WeatherDisplay:10.37,2013-07-12 09:15:00,
2013-07-12 03:30:00,82.0,77.7,29.92,East,79,3.0,13.0,87,0.00,CLR,,0.00,WeatherDisplay:10.37,2013-07-12 09:30:00,
2013-07-12 03:45:00,81.4,76.5,29.92,NE,44,5.0,12.0,85,0.00,CLR,,0.00,WeatherDisplay:10.37,2013-07-12 09:45:00,
2013-07-12 04:00:00,80.4,75.5,29.92,North,10,7.0,10.0,85,0.00,CLR,,0.00,WeatherDisplay:10.37,2013-07-12 10:00:00,
2013-07-12 04:15:00,78.7,75.5,29.91,North,2,6.0,10.0,90,0.00,CLR,,0.00,WeatherDisplay:10.37,2013-07-12 10:15:00,
2013-07-12 04:30:00,78.2,75.4,29.91,North,2,5.0,9.0,91,0.00,CLR,,0.00,WeatherDisplay:10.37,2013-07-12 10:30:00,
2013-07-12 04:45:00,78.2,75.4,29.91,North,6,2.0,7.0,91,0.00,CLR,,0.00,WeatherDisplay:10.37,2013-07-12 10:45:00,
2013-07-12 05:00:00,78.4,75.9,29.91,North,360,5.0,8.0,92,0.00,CLR,,0.00,WeatherDisplay:10.37,2013-07-12 11:00:00,
2013-07-12 05:15:00,78.0,75.2,29.91,NNE,13,5.0,9.0,91,0.00,CLR,,0.00,WeatherDisplay:10.37,2013-07-12 11:15:00,
2013-07-12 05:30:00,78.0,75.2,29.92,NNE,12,3.0,8.0,91,0.00,CLR,,0.00,WeatherDisplay:10.37,2013-07-12 11:30:00,
2013-07-12 05:45:00,77.8,75.0,29.92,NNE,25,1.0,8.0,91,0.00,CLR,,0.00,WeatherDisplay:10.37,2013-07-12 11:45:00,
2013-07-12 06:00:00,78.6,76.0,29.92,NE,44,1.0,5.0,92,0.00,CLR,,0.00,WeatherDisplay:10.37,2013-07-12 12:00:00,
2013-07-12 06:15:00,80.2,77.0,29.92,NNE,31,1.0,6.0,90,0.00,CLR,,0.00,WeatherDisplay:10.37,2013-07-12 12:15:00,
2013-07-12 06:30:00,80.8,77.3,29.92,NNE,21,3.0,6.0,89,0.00,CLR,,0.00,WeatherDisplay:10.37,2013-07-12 12:30:00,
2013-07-12 06:45:00,81.0,77.5,29.92,NNE,28,1.0,6.0,89,0.00,CLR,,0.00,WeatherDisplay:10.37,2013-07-12 12:45:00,
2013-07-12 07:00:00,82.1,78.2,29.92,ENE,57,2.0,6.0,88,0.00,CLR,,0.00,WeatherDisplay:10.37,2013-07-12 13:00:00,
2013-07-12 07:15:00,83.2,78.5,29.93,NE,52,2.0,7.0,86,0.00,CLR,,0.00,WeatherDisplay:10.37,2013-07-12 13:15:00,
2013-07-12 07:30:00,85.4,79.3,29.92,East,81,2.0,7.0,82,0.00,CLR,,0.00,WeatherDisplay:10.37,2013-07-12 13:30:00,
2013-07-12 07:45:00,84.7,79.0,29.92,East,81,3.0,9.0,83,0.00,CLR,,0.00,WeatherDisplay:10.37,2013-07-12 13:45:00,
2013-07-12 08:00:00,84.4,78.3,29.92,East,99,3.0,10.0,82,0.00,CLR,,0.00,WeatherDisplay:10.37,2013-07-12 14:00:00,
2013-07-12 08:15:00,84.1,77.3,29.93,ESE,113,7.0,10.0,80,0.00,CLR,,0.00,WeatherDisplay:10.37,2013-07-12 14:15:00,
2013-07-12 08:30:00,84.2,76.6,29.93,ESE,117,6.0,10.0,78,0.00,CLR,,0.00,WeatherDisplay:10.37,2013-07-12 14:30:00,
2013-07-12 08:45:00,84.4,77.6,29.93,ESE,119,6.0,10.0,80,0.00,CLR,,0.00,WeatherDisplay:10.37,2013-07-12 14:45:00,
2013-07-12 09:00:00,85.5,77.4,29.93,ESE,115,6.0,9.0,77,0.00,CLR,,0.00,WeatherDisplay:10.37,2013-07-12 15:00:00,
2013-07-12 09:15:00,85.9,78.2,29.93,ESE,119,7.0,9.0,78,0.00,CLR,,0.00,WeatherDisplay:10.37,2013-07-12 15:15:00,
2013-07-12 09:30:00,85.7,78.0,29.93,ESE,122,7.0,10.0,78,0.00,CLR,,0.00,WeatherDisplay:10.37,2013-07-12 15:30:00,
2013-07-12 09:45:00,85.6,77.9,29.93,ESE,123,7.0,9.0,78,0.00,CLR,,0.00,WeatherDisplay:10.37,2013-07-12 15:45:00,
2013-07-12 10:00:00,86.0,78.7,29.93,ESE,118,5.0,8.0,79,0.00,CLR,,0.00,WeatherDisplay:10.37,2013-07-12 16:00:00,
2013-07-12 10:15:00,86.3,77.4,29.93,ESE,123,5.0,8.0,75,0.00,CLR,,0.00,WeatherDisplay:10.37,2013-07-12 16:15:00,
2013-07-12 10:30:00,85.7,77.6,29.94,ESE,119,6.0,9.0,77,0.00,CLR,,0.00,WeatherDisplay:10.37,2013-07-12 16:30:00,
2013-07-12 10:45:00,86.3,77.8,29.93,ESE,119,5.0,8.0,76,0.00,CLR,,0.00,WeatherDisplay:10.37,2013-07-12 16:45:00,
2013-07-12 11:00:00,87.0,78.5,29.93,ESE,115,3.0,9.0,76,0.00,CLR,,0.00,WeatherDisplay:10.37,2013-07-12 17:00:00,
2013-07-12 11:16:00,87.4,78.9,29.93,ESE,111,5.0,8.0,76,0.00,CLR,,0.00,WeatherDisplay:10.37,2013-07-12 17:16:00,
2013-07-12 11:31:00,87.3,79.6,29.92,ESE,110,3.0,8.0,78,0.00,CLR,,0.00,WeatherDisplay:10.37,2013-07-12 17:31:00,
2013-07-12 11:45:00,87.8,79.7,29.92,ESE,105,3.0,7.0,77,0.00,CLR,,0.00,WeatherDisplay:10.37,2013-07-12 17:45:00,
2013-07-12 12:00:00,87.5,79.4,29.92,ESE,103,2.0,7.0,77,0.00,CLR,,0.00,WeatherDisplay:10.37,2013-07-12 18:00:00,
2013-07-12 12:15:00,88.2,79.7,29.92,East,98,3.0,7.0,76,0.00,CLR,,0.00,WeatherDisplay:10.37,2013-07-12 18:15:00,
2013-07-12 12:30:00,88.5,79.6,29.92,East,90,3.0,7.0,75,0.00,CLR,,0.00,WeatherDisplay:10.37,2013-07-12 18:30:00,
2013-07-12 12:45:00,88.3,79.4,29.91,East,94,2.0,8.0,75,0.00,CLR,,0.00,WeatherDisplay:10.37,2013-07-12 18:45:00,
2013-07-12 13:00:00,87.8,79.6,29.91,East,86,3.0,7.0,77,0.00,CLR,,0.00,WeatherDisplay:10.37,2013-07-12 19:00:00,
2013-07-12 13:15:00,87.9,79.7,29.90,East,86,3.0,7.0,77,0.00,CLR,,0.00,WeatherDisplay:10.37,2013-07-12 19:15:00,
2013-07-12 13:31:00,87.9,79.8,29.90,East,93,3.0,8.0,77,0.00,CLR,,0.00,WeatherDisplay:10.37,2013-07-12 19:31:00,
2013-07-12 13:45:00,87.7,79.2,29.89,East,92,5.0,8.0,76,0.00,CLR,,0.00,WeatherDisplay:10.37,2013-07-12 19:45:00,
2013-07-12 14:01:00,86.9,78.4,29.88,East,89,7.0,9.0,76,0.00,CLR,,0.00,WeatherDisplay:10.37,2013-07-12 20:01:00,
2013-07-12 14:15:00,87.4,79.3,29.88,East,95,6.0,9.0,77,0.00,CLR,,0.00,WeatherDisplay:10.37,2013-07-12 20:15:00,
2013-07-12 14:31:00,87.0,78.9,29.88,East,83,6.0,9.0,77,0.00,CLR,,0.00,WeatherDisplay:10.37,2013-07-12 20:31:00,
2013-07-12 14:45:00,87.2,78.7,29.87,East,92,5.0,9.0,76,0.00,CLR,,0.00,WeatherDisplay:10.37,2013-07-12 20:45:00,
2013-07-12 15:00:00,88.0,79.5,29.86,ENE,74,2.0,9.0,76,0.00,CLR,,0.00,WeatherDisplay:10.37,2013-07-12 21:00:00,
2013-07-12 15:15:00,87.2,79.1,29.86,East,82,3.0,9.0,77,0.00,CLR,,0.00,WeatherDisplay:10.37,2013-07-12 21:15:00,
2013-07-12 15:30:00,86.8,78.7,29.85,East,90,5.0,10.0,77,0.00,CLR,,0.00,WeatherDisplay:10.37,2013-07-12 21:30:00,
2013-07-12 15:45:00,86.9,79.2,29.85,East,83,5.0,12.0,78,0.00,CLR,,0.00,WeatherDisplay:10.37,2013-07-12 21:45:00,
2013-07-12 16:00:00,87.2,78.7,29.85,NE,54,3.0,12.0,76,0.00,CLR,,0.00,WeatherDisplay:10.37,2013-07-12 22:00:00,
2013-07-12 16:15:00,85.6,78.3,29.86,ENE,63,5.0,10.0,79,0.00,CLR,,0.00,WeatherDisplay:10.37,2013-07-12 22:15:00,
2013-07-12 16:26:00,84.9,78.4,29.86,NE,44,7.0,12.0,81,0.00,CLR,,0.00,WeatherDisplay:10.37,2013-07-12 22:26:00,
2013-07-12 16:45:00,84.4,78.6,29.85,NE,43,5.0,13.0,83,0.00,CLR,,0.00,WeatherDisplay:10.37,2013-07-12 22:45:00,
2013-07-12 17:00:00,84.3,78.6,29.86,ENE,61,2.0,9.0,83,0.00,CLR,,0.00,WeatherDisplay:10.37,2013-07-12 23:00:00,
2013-07-12 17:15:00,84.4,79.0,29.86,NE,52,5.0,10.0,84,0.00,CLR,,0.00,WeatherDisplay:10.37,2013-07-12 23:15:00,
2013-07-12 17:30:00,84.1,78.7,29.86,ENE,62,3.0,13.0,84,0.00,CLR,,0.00,WeatherDisplay:10.37,2013-07-12 23:30:00,
2013-07-12 17:46:00,83.7,78.4,29.86,ENE,72,10.0,15.0,84,0.00,CLR,,0.00,WeatherDisplay:10.37,2013-07-12 23:46:00,
2013-07-12 18:00:00,83.5,78.1,29.87,East,83,7.0,14.0,84,0.00,CLR,,0.00,WeatherDisplay:10.37,2013-07-13 00:00:00,
2013-07-12 18:15:00,83.5,78.5,29.88,ENE,72,6.0,13.0,85,0.00,CLR,,0.00,WeatherDisplay:10.37,2013-07-13 00:15:00,
2013-07-12 18:30:00,83.4,78.8,29.89,ENE,71,6.0,14.0,86,0.00,CLR,,0.00,WeatherDisplay:10.37,2013-07-13 00:30:00,
2013-07-12 18:45:00,83.4,78.8,29.89,ENE,68,6.0,13.0,86,0.00,CLR,,0.00,WeatherDisplay:10.37,2013-07-13 00:45:00,
2013-07-12 19:16:00,83.4,78.8,29.90,East,80,7.0,14.0,86,0.00,CLR,,0.00,WeatherDisplay:10.37,2013-07-13 01:16:00,
2013-07-12 19:30:00,83.5,78.5,29.91,East,90,10.0,15.0,85,0.00,CLR,,0.00,WeatherDisplay:10.37,2013-07-13 01:30:00,
2013-07-12 20:00:00,83.3,78.3,29.92,East,82,6.0,14.0,85,0.00,CLR,,0.00,WeatherDisplay:10.37,2013-07-13 02:00:00,
2013-07-12 20:15:00,83.3,77.6,29.92,East,79,8.0,13.0,83,0.00,CLR,,0.00,WeatherDisplay:10.37,2013-07-13 02:15:00,
2013-07-12 20:30:00,83.2,78.2,29.92,ENE,71,9.0,15.0,85,0.00,CLR,,0.00,WeatherDisplay:10.37,2013-07-13 02:30:00,
2013-07-12 20:45:00,83.3,77.2,29.92,East,95,13.0,19.0,82,0.00,CLR,,0.00,WeatherDisplay:10.37,2013-07-13 02:45:00,
2013-07-12 21:00:00,83.2,77.5,29.92,ENE,70,10.0,16.0,83,0.00,CLR,,0.00,WeatherDisplay:10.37,2013-07-13 03:00:00,
2013-07-12 21:15:00,83.4,78.8,29.92,East,86,9.0,14.0,86,0.00,CLR,,0.00,WeatherDisplay:10.37,2013-07-13 03:15:00,
2013-07-12 21:46:00,83.1,78.4,29.92,ENE,57,7.0,13.0,86,0.00,CLR,,0.00,WeatherDisplay:10.37,2013-07-13 03:46:00,
2013-07-12 22:00:00,83.1,78.8,29.92,ENE,60,6.0,12.0,87,0.00,CLR,,0.00,WeatherDisplay:10.37,2013-07-13 04:00:00,
2013-07-12 22:15:00,83.2,78.6,29.93,ENE,73,6.0,14.0,86,0.00,CLR,,0.00,WeatherDisplay:10.37,2013-07-13 04:15:00,
2013-07-12 22:30:00,83.2,78.2,29.93,ENE,78,8.0,15.0,85,0.00,CLR,,0.00,WeatherDisplay:10.37,2013-07-13 04:30:00,
2013-07-12 22:45:00,83.2,78.2,29.93,ENE,64,5.0,13.0,85,0.00,CLR,,0.00,WeatherDisplay:10.37,2013-07-13 04:45:00,
2013-07-12 23:00:00,83.2,78.5,29.93,ENE,58,6.0,12.0,86,0.00,CLR,,0.00,WeatherDisplay:10.37,2013-07-13 05:00:00,
2013-07-12 23:15:00,83.3,78.3,29.93,ENE,76,7.0,14.0,85,0.00,CLR,,0.00,WeatherDisplay:10.37,2013-07-13 05:15:00,
2013-07-12 23:30:00,83.2,77.9,29.92,ENE,76,6.0,14.0,84,0.00,CLR,,0.00,WeatherDisplay:10.37,2013-07-13 05:30:00,
2013-07-12 23:45:00,83.3,78.3,29.92,East,85,7.0,12.0,85,0.00,CLR,,0.00,WeatherDisplay:10.37,2013-07-13 05:45:00,